Regional Weather Roundup
Issued by NWS

Home | Current Version | Previous Version | Text Only | Print | Product List | Glossary Off
Versions: 1 2 3 4 5 6 7 8 9 10 11 12 13 14 15 16 17 18 19 20 21 22 23 24 25 26 27 28 29 30 31 32 33 34 35 36 37 38 39 40 41 42 43 44 45 46 47 48 49 50

000
ASUS43 KDTX 280601
RWRMI
MICHIGAN HOURLY REGIONAL WEATHER ROUNDUP
NATIONAL WEATHER SERVICE DETROIT/PONTIAC MI
200 AM EDT SAT MAY 28 2016

NOTE: "FAIR" INDICATES FEW OR NO CLOUDS BELOW 12,000 FEET WITH NO
SIGNIFICANT WEATHER AND/OR OBSTRUCTION TO VISIBILITY.

MIZ047>049-052>055-059>063-066>070-074>076-081>083-280700-
SOUTHEAST LOWER MICHIGAN

CITY           SKY/WX    TMP DP  RH WIND       PRES   REMARKS
ADRIAN         CLEAR     71  60  68 SW6       30.00R
6HR MIN TEMP:  68; 6HR MAX TEMP:  83;

ALMA           CLOUDY    70  64  81 CALM      29.94S
ANN ARBOR      CLEAR     62  60  93 CALM      29.99R
BAD AXE        CLOUDY    71  63  76 S5        29.97S
CARO           PTCLDY    73  64  72 SE5       29.96R
DETROIT CITY   CLEAR     71  61  70 S3        29.99R
6HR MIN TEMP:  70; 6HR MAX TEMP:  82;

DETROIT        MOCLDY    69  62  78 CALM      29.99S
6HR MIN TEMP:  69; 6HR MAX TEMP:  80;

FLINT          CLOUDY    77  63  61 S8        29.97R
6HR MIN TEMP:  75; 6HR MAX TEMP:  83;

GROSSE ILE     PTCLDY    66  63  88 SE5       29.97S
HILLSDALE      CLEAR     73  55  53 S7        30.00S
6HR MIN TEMP:  73; 6HR MAX TEMP:  80;

HOWELL         CLOUDY    72  62  71 S7        29.98S

CITY           SKY/WX    TMP DP  RH WIND       PRES   REMARKS
JACKSON        CLEAR     73  61  65 S8        29.98S
6HR MIN TEMP:  70; 6HR MAX TEMP:  79;

LAMBERTVILLE   CLEAR     74  61  64 SW5       30.00R
6HR MIN TEMP:  67; 6HR MAX TEMP:  78;

LANSING        PTCLDY    73  62  68 S9        29.96R
6HR MIN TEMP:  73; 6HR MAX TEMP:  79;

LAPEER         FAIR      73  61  64 S8        29.98S
6HR MIN TEMP:  73; 6HR MAX TEMP:  79;

MASON          CLEAR     71  62  72 S6        29.97S
MONROE         CLEAR     67  64  90 S13       29.98S
6HR MIN TEMP:  66; 6HR MAX TEMP:  75;

MT. CLEMENS    CLEAR     66  63  89 SE5       29.98S
6HR MIN TEMP:  66; 6HR MAX TEMP:  77;

PONTIAC        CLOUDY    72  62  71 SE6       29.98S
6HR MIN TEMP:  72; 6HR MAX TEMP:  80;

PORT HOPE        N/A     67  62  84 SE6       29.95S
6HR MIN TEMP:  61; 6HR MAX TEMP:  69;

PORT HURON     CLOUDY    70  61  73 SE5       29.99S
TRI CITIES     CLOUDY    76  64  66 S8        29.94S
6HR MIN TEMP:  75; 6HR MAX TEMP:  78;

MIDLAND        FAIR      74  64  73 SW3       29.93R
6HR MIN TEMP:  69; 6HR MAX TEMP:  74;

TROY           CLEAR     73  61  65 CALM      30.00S
SAGINAW HB     CLOUDY    73  63  68 S9        29.94S
$$
MIZ043>046-050>051-056>058-064>065-071>073-077>080-280700-
SOUTHWEST LOWER MICHIGAN

CITY           SKY/WX    TMP DP  RH WIND       PRES   REMARKS
BATTLE CREEK   CLOUDY    73  60  63 S8        29.96F
6HR MIN TEMP:  72; 6HR MAX TEMP:  80;

BENTON HARBOR  CLOUDY    71  65  81 SE6       29.92F
6HR MIN TEMP:  70; 6HR MAX TEMP:  72; 6HR PCP:  0.01;

BIG RAPIDS     CLOUDY    68  67  97 SE3       29.94R
6HR MIN TEMP:  68; 6HR MAX TEMP:  73; 6HR PCP:  0.15;

COLDWATER      PTCLDY    73  60  61 S7        29.97S
6HR MIN TEMP:  71; 6HR MAX TEMP:  80;

FREMONT        DRIZZLE   68  68 100 S9        29.91F
HOLLAND        CLOUDY    69  66  90 SE6       29.92F
6HR MIN TEMP:  69; 6HR MAX TEMP:  72; 6HR PCP:  0.01;

GRAND RAPIDS   CLOUDY    71  65  81 S6        29.93F
6HR MIN TEMP:  71; 6HR MAX TEMP:  79; 6HR PCP: TRACE;

IONIA          FAIR      73  61  65 S7        29.93F
6HR MIN TEMP:  72; 6HR MAX TEMP:  77;

KALAMAZOO      CLOUDY    72  58  61 S5        29.95S
6HR MIN TEMP:  71; 6HR MAX TEMP:  82;

LUDINGTON      CLOUDY    69  66  88 S9        29.89F
6HR MIN TEMP:  69; 6HR MAX TEMP:  74; 6HR PCP:  0.06;

MARSHALL       PTCLDY    72  60  65 S5        29.97S
6HR MIN TEMP:  72; 6HR MAX TEMP:  80;

MOUNT PLEASANT CLOUDY    68  67  98 CALM      29.93S FOG
6HR MIN TEMP:  68; 6HR MAX TEMP:  73; 6HR PCP:  0.01;

MUSKEGON       CLOUDY    71  64  78 S12       29.90F
6HR MIN TEMP:  69; 6HR MAX TEMP:  76; 6HR PCP:  0.08;

SOUTH HAVEN    CLOUDY    71  67  87 S5        29.92F
$$
MIZ016>042-280700-
NORTHERN LOWER MICHIGAN

CITY           SKY/WX    TMP DP  RH WIND       PRES   REMARKS
ALPENA         CLOUDY    63  58  83 CALM      29.97R
6HR MIN TEMP:  61; 6HR MAX TEMP:  64; 6HR PCP: TRACE;

BEAVER ISLAND  CLOUDY    64  64  97 E9        29.90F
6HR MIN TEMP:  61; 6HR MAX TEMP:  65;

BELLAIRE       CLOUDY    68  65  90 CALM      29.91F
6HR MIN TEMP:  65; 6HR MAX TEMP:  69;

CADILLAC       RAIN      67  65  93 S7        29.94R
CHARLEVOIX     CLOUDY    67  67  98 SE8       29.93F
6HR MIN TEMP:  66; 6HR MAX TEMP:  67;

FRANKFORT      CLOUDY    70  67  90 S6        29.88S
GAYLORD        CLOUDY    67  65  93 SE7       29.96F
6HR MIN TEMP:  67; 6HR MAX TEMP:  69; 6HR PCP:  0.04;

GRAYLING       CLOUDY    67  66  96 E5        29.96F
HARBOR SPRINGS RAIN      66  65  96 NE3       29.93S
HOUGHTON LAKE  CLOUDY    67  65  93 E7        29.96F
6HR MIN TEMP:  67; 6HR MAX TEMP:  74; 6HR PCP:  0.31;

MANISTEE       CLOUDY    70  64  83 SE3       29.90F
OSCODA         CLOUDY    63  58  85 CALM      29.95S
6HR MIN TEMP:  62; 6HR MAX TEMP:  65;

PELLSTON       LGT RAIN  66  65  96 SE3       29.94S
6HR MIN TEMP:  66; 6HR MAX TEMP:  69; 6HR PCP:  0.04;

ROGERS CITY    LGT RAIN  65  59  81 S6        29.97R
TRAVERSE CITY  CLOUDY    70  66  87 SE9       29.88F
6HR MIN TEMP:  66; 6HR MAX TEMP:  71; 6HR PCP:  0.01;

$$
MIZ007>008-015-280700-
EASTERN UPPER MICHIGAN

CITY           SKY/WX    TMP DP  RH WIND       PRES   REMARKS
KINROSS          N/A     61  61 100 SE8       29.95S
6HR MIN TEMP:  61; 6HR MAX TEMP:  72;

MACKINAC ISLAN LGT RAIN  53  53 100 E5        29.94S
6HR MIN TEMP:  53; 6HR MAX TEMP:  62; 6HR PCP:  0.03;

NEWBERRY       RAIN      62  61  97 E7        29.91F
6HR MIN TEMP:  62; 6HR MAX TEMP:  70; 6HR PCP:  0.07;

S. S. MARIE    LGT RAIN  63  58  83 E3        29.94S
6HR MIN TEMP:  63; 6HR MAX TEMP:  71; 6HR PCP:  0.03;

MUNISING         N/A     63  61  93 S6        29.85F
6HR MIN TEMP:  54; 6HR MAX TEMP:  66; 6HR PCP:  0.15;

$$
MIZ004>006-011>014-085-280700-
CENTRAL UPPER MICHIGAN

CITY           SKY/WX    TMP DP  RH WIND       PRES   REMARKS
MANISTIQUE     LGT RAIN  61  60  97 E10       29.88S
6HR MIN TEMP:  59; 6HR MAX TEMP:  63; 6HR PCP:  0.18;

ESCANABA       CLOUDY    61  59  94 SE13      29.84F
6HR MIN TEMP:  57; 6HR MAX TEMP:  64; 6HR PCP:  0.14;

MENOMINEE      CLOUDY    61  61 100 SE8       29.84S FOG
6HR MIN TEMP:  58; 6HR MAX TEMP:  62; 6HR PCP:  0.44;

SAWYER-GWINN   RAIN      62  61  95 SE6       29.85F
6HR MIN TEMP:  62; 6HR MAX TEMP:  66; 6HR PCP:  0.24;

$$
MIZ001>003-009>011-084-280700-
WESTERN UPPER MICHIGAN

CITY           SKY/WX    TMP DP  RH WIND       PRES   REMARKS
IRON MOUNTAIN  CLOUDY    62  61  96 SE8       29.82F FOG
6HR MIN TEMP:  62; 6HR MAX TEMP:  65; 6HR PCP:  0.01;

HOUGHTON       FOG       54  53  97 E13       29.81F VSB 1/4
6HR MIN TEMP:  53; 6HR MAX TEMP:  57; 6HR PCP:  0.01;

COPPER HARBOR    N/A     48  48 100 CALM      29.84F
6HR MIN TEMP:  43; 6HR MAX TEMP:  54; 6HR PCP:  0.03;

IRONWOOD       CLOUDY    59  57  94 CALM      29.75S
6HR MIN TEMP:  57; 6HR MAX TEMP:  61; 6HR PCP:  0.01;

$$

ABBREVIATIONS USED IN REMARKS
   TC - TEMPERATURE IN CELSIUS
  WCI - WIND CHILL INDEX
   HX - HEAT INDEX
  VSB - VISIBILITY




USA.gov is the U.S. government's official web portal to all federal, state and local government web resources and services.